Location: Unspecified
(49.2170°N, 0.0000°E)
Time: 15:41:34
(UTC+00:00)

Transit 4A - Pass Details

Date: 16 June 2019
Orbit: 862 x 982 km, 66.8° (Epoch: 20 July)

Event Time Altitude Azimuth Distance (km) Brightness Sun altitude
Rises 08:05:56 0° 163° (SSE) 3,601 11.2 37.7°
Reaches altitude 10° 08:09:13 10° 145° (SE) 2,681 11.0 38.2°
Maximum altitude 08:13:21 19° 104° (ESE) 2,143 11.5 38.9°
Drops below altitude 10° 08:17:34 10° 62° (ENE) 2,731 11.1 39.6°
Sets 08:20:55 0° 46° (NE) 3,692 11.4 40.1°
